Location: Carnoy
(49.9849°N, 2.7558°E)
Time: 12:16:41
(UTC+00:00)

Cosmos 2123 Rocket - Pass Details

Date: 24 January 2020
Orbit: 961 x 992 km, 82.9° (Epoch: 16 February)

Event Time Altitude Azimuth Distance (km) Brightness Sun altitude
Rises 19:58:43 0° 347° (NNW) 3,716 7.3 -33.4°
Reaches altitude 10° 20:01:17 10° 345° (NNW) 2,761 6.6 -33.8°
Enters shadow 20:06:52 57° 293° (WNW) 1,151 4.5 -34.6°
